Voltar ao catálogo

COSMOS 1798

AtivoMilitarLEO
NORAD 17142·PAYLOAD·🇷🇺 Russia

Lançado Nov 21, 1986 de Plesetsk Cosmodrome

Loading…

Próximas Passagens (próximas 24 horas)

TLE

AtualizadoSource: Space-Track

Época: Sep 14, 2026, 10:36 UTC

1 17142U 86092E   26257.44200959 -.00000029  00000-0 -84508-4 0  9997
2 17142  74.0112  72.0958 0027904 105.2180 269.3054 12.53477836821840

Acompanhe COSMOS 1798 em tempo real com AllMySat

Download on the App Store